Cape Cod CGAS, MA

1:42 AM EST on November 22, 2017 (GMT -0500)
Cape Cod Coast Guard Air Station

Weather History for KFMH - March, 2015

Change the Weather History Date:

Tuesday, March 3, 2015

  Actual Average Record
Temperature  
Mean Temperature 22 °F -  
Max Temperature 33 °F 40 °F 55 °F (2002)
Min Temperature 12 °F 23 °F 10 °F (2003)
Degree Days  
Heating Degree Days 42    
Moisture  
Dew Point 12 °F    
Average Humidity 60    
Maximum Humidity 100    
Minimum Humidity 26    
Precipitation  
Precipitation 0.20 in - - ()
Sea Level Pressure  
Sea Level Pressure 30.26 in    
Wind  
Wind Speed 8 mph (WSW)    
Max Wind Speed 21 mph    
Max Gust Speed 30 mph    
Visibility 8 miles    
Events Snow    
Averages and records for this station are not official NWS values.
T = Trace of Precipitation, MM = Missing Value Source: NWS Daily Summary

Daily Weather History Graph

Daily Weather History Graph

Search for Another Location

Airport or City:

Trip Planner

Search our weather history database for the weather conditions in past years. The results will help you decide how hot, cold, wet, or windy it might be!

Date:

Astronomy

Mar. 03, 2015 Rise Set
Actual Time 6:14 AM EST 5:34 PM EST
Civil Twilight 5:46 AM EST 6:02 PM EST
Nautical Twilight 5:14 AM EST 6:34 PM EST
Astronomical Twilight 4:41 AM EST 7:06 PM EST
Moon 3:54 PM EST (3/3) 4:53 AM EST (3/3)
Length of Visible Light 12h 16m
Length of Day
11h 20m
Waxing Gibbous, 96% of the Moon is Illuminated
Mar 3
Waxing Gibbous
Mar 5
Full
Mar 13
Last Quarter
Mar 20
New
Mar 27
First Quarter

Hourly Weather History & Observations

Time (EST) Temp. Windchill Dew Point Humidity Pressure Visibility Wind Dir Wind Speed Gust Speed Precip Events Conditions
12:15 AM 23.0 °F 12.4 °F 10.4 °F 59% 30.25 in 10.0 mi West 10.4 mph - N/A   Overcast
12:35 AM 21.2 °F 14.9 °F 10.4 °F 63% 30.26 in 10.0 mi WNW 4.6 mph - N/A   Overcast
12:55 AM 21.2 °F 12.6 °F 10.4 °F 63% 30.27 in 10.0 mi WNW 6.9 mph - N/A   Mostly Cloudy
1:15 AM 21.2 °F 10.9 °F 10.4 °F 63% 30.28 in 10.0 mi WNW 9.2 mph - N/A   Overcast
1:35 AM 21.2 °F 10.9 °F 10.4 °F 63% 30.29 in 10.0 mi WNW 9.2 mph 17.3 mph N/A   Overcast
1:55 AM 21.2 °F 11.7 °F 8.6 °F 58% 30.29 in 10.0 mi WNW 8.1 mph - N/A   Overcast
2:15 AM 21.2 °F 14.9 °F 8.6 °F 58% 30.30 in 10.0 mi NNW 4.6 mph - N/A   Overcast
2:35 AM 19.4 °F 8.6 °F 8.6 °F 63% 30.28 in 10.0 mi WNW 9.2 mph - N/A   Scattered Clouds
2:55 AM 19.4 °F 8.6 °F 6.8 °F 58% 30.29 in 10.0 mi NW 9.2 mph - N/A   Clear
3:15 AM 19.4 °F - 6.8 °F 58% 30.31 in 10.0 mi Calm Calm - N/A   Clear
3:35 AM 17.6 °F 9.3 °F 6.8 °F 63% 30.31 in 10.0 mi NW 5.8 mph 13.8 mph N/A   Clear
3:55 AM 15.8 °F 7.2 °F 5.0 °F 62% 30.32 in 10.0 mi NW 5.8 mph - N/A   Clear
4:15 AM 14.0 °F - 5.0 °F 67% 30.33 in 10.0 mi Calm Calm - N/A   Clear
4:35 AM 14.0 °F 3.9 °F 5.0 °F 67% 30.33 in 10.0 mi NW 6.9 mph - N/A   Clear
4:55 AM 15.8 °F 7.2 °F 6.8 °F 68% 30.35 in 10.0 mi NNW 5.8 mph - N/A   Clear
5:35 AM 15.8 °F - 3.2 °F 58% 30.36 in 10.0 mi Calm Calm - N/A   Clear
5:55 AM 12.2 °F -0.2 °F 3.2 °F 67% 30.36 in 10.0 mi WNW 9.2 mph - N/A   Clear
6:15 AM 14.0 °F 6.5 °F 5.0 °F 67% 30.36 in 10.0 mi WNW 4.6 mph - N/A   Clear
6:35 AM 14.0 °F 2.9 °F 3.2 °F 62% 30.37 in 10.0 mi WNW 8.1 mph - N/A   Clear
6:55 AM 15.8 °F 7.2 °F 5.0 °F 62% 30.38 in 10.0 mi NW 5.8 mph - N/A   Clear
7:15 AM 15.8 °F 8.6 °F 5.0 °F 62% 30.38 in 10.0 mi NW 4.6 mph - N/A   Clear
7:35 AM 19.4 °F 11.5 °F 5.0 °F 54% 30.39 in 10.0 mi NW 5.8 mph - N/A   Clear
7:55 AM 21.2 °F 10.9 °F 5.0 °F 50% 30.40 in 10.0 mi NW 9.2 mph - N/A   Clear
8:15 AM 21.2 °F 11.7 °F 5.0 °F 50% 30.41 in 10.0 mi WNW 8.1 mph 15.0 mph N/A   Clear
8:35 AM 21.2 °F 10.1 °F 5.0 °F 50% 30.41 in 10.0 mi WNW 10.4 mph - N/A   Clear
8:55 AM 23.0 °F 13.1 °F 5.0 °F 46% 30.40 in 10.0 mi WNW 9.2 mph 18.4 mph N/A   Clear
9:15 AM 23.0 °F 14.7 °F 5.0 °F 46% 30.40 in 10.0 mi Variable 6.9 mph 12.7 mph N/A   Clear
9:35 AM 24.8 °F 16.1 °F -0.4 °F 34% 30.41 in 10.0 mi NW 8.1 mph 15.0 mph N/A   Clear
9:55 AM 24.8 °F 16.1 °F 1.4 °F 36% 30.39 in 10.0 mi WNW 8.1 mph - N/A   Clear
10:15 AM 26.6 °F 21.2 °F -0.4 °F 31% 30.40 in 10.0 mi Variable 4.6 mph 11.5 mph N/A   Clear
10:35 AM 26.6 °F 18.2 °F 3.2 °F 37% 30.40 in 10.0 mi West 8.1 mph - N/A   Clear
10:55 AM 26.6 °F 19.1 °F 1.4 °F 34% 30.40 in 10.0 mi WSW 6.9 mph - N/A   Clear
11:15 AM 26.6 °F 22.6 °F 3.2 °F 37% 30.39 in 10.0 mi West 3.5 mph - N/A   Clear
11:35 AM 26.6 °F 21.2 °F 3.2 °F 37% 30.38 in 10.0 mi SW 4.6 mph - N/A   Clear
11:55 AM 26.6 °F 20.0 °F 3.2 °F 37% 30.38 in 10.0 mi SSW 5.8 mph - N/A   Clear
12:15 PM 28.4 °F 23.3 °F 3.2 °F 34% 30.37 in 10.0 mi WSW 4.6 mph - N/A   Clear
12:35 PM 28.4 °F 22.2 °F 1.4 °F 31% 30.37 in 10.0 mi WSW 5.8 mph - N/A   Clear
12:55 PM 28.4 °F 23.3 °F 1.4 °F 31% 30.36 in 10.0 mi WNW 4.6 mph - N/A   Clear
1:15 PM 28.4 °F 21.2 °F 5.0 °F 37% 30.34 in 10.0 mi WSW 6.9 mph - N/A   Clear
1:35 PM 28.4 °F 19.7 °F 6.8 °F 40% 30.34 in 10.0 mi SW 9.2 mph - N/A   Clear
1:55 PM 28.4 °F 20.4 °F 6.8 °F 40% 30.32 in 10.0 mi SSW 8.1 mph - N/A   Clear
2:15 PM 28.4 °F 20.4 °F 6.8 °F 40% 30.31 in 10.0 mi SSW 8.1 mph - N/A   Clear
2:35 PM 28.4 °F 20.4 °F 6.8 °F 40% 30.30 in 10.0 mi SW 8.1 mph - N/A   Clear
2:55 PM 28.4 °F 19.7 °F 8.6 °F 43% 30.29 in 10.0 mi WSW 9.2 mph - N/A   Clear
3:15 PM 28.4 °F 21.2 °F 8.6 °F 43% 30.28 in 10.0 mi WSW 6.9 mph - N/A   Clear
3:35 PM 28.4 °F 19.7 °F 10.4 °F 47% 30.27 in 10.0 mi SW 9.2 mph - N/A   Clear
3:55 PM 26.6 °F 16.2 °F 10.4 °F 51% 30.26 in 10.0 mi SSW 11.5 mph - N/A   Clear
4:15 PM 26.6 °F 16.8 °F 10.4 °F 51% 30.26 in 10.0 mi SSW 10.4 mph - N/A   Clear
4:35 PM 26.6 °F 15.7 °F 14.0 °F 59% 30.24 in 10.0 mi SSW 12.7 mph - N/A   Clear
4:55 PM 26.6 °F 14.7 °F 15.8 °F 64% 30.24 in 10.0 mi SSW 15.0 mph - N/A   Clear
5:15 PM 26.6 °F 16.2 °F 17.6 °F 69% 30.22 in 10.0 mi SSW 11.5 mph - N/A   Scattered Clouds
5:35 PM 26.6 °F 15.7 °F 17.6 °F 69% 30.22 in 10.0 mi SSW 12.7 mph - N/A   Overcast
5:55 PM 26.6 °F 15.7 °F 17.6 °F 69% 30.21 in 10.0 mi SSW 12.7 mph - N/A   Overcast
6:15 PM 26.6 °F 15.7 °F 17.6 °F 69% 30.20 in 10.0 mi South 12.7 mph - N/A   Overcast
6:35 PM 28.4 °F 18.5 °F 17.6 °F 64% 30.19 in 10.0 mi South 11.5 mph - N/A   Overcast
6:55 PM 28.4 °F 18.5 °F 19.4 °F 69% 30.17 in 10.0 mi South 11.5 mph 18.4 mph N/A   Overcast
7:15 PM 28.4 °F 18.5 °F 19.4 °F 69% 30.16 in 5.0 mi South 11.5 mph - N/A   Overcast
7:35 PM 26.6 °F 15.7 °F 23.0 °F 86% 30.14 in 0.5 mi South 12.7 mph - N/A Snow Light Snow
7:55 PM 26.6 °F 15.2 °F 24.8 °F 93% 30.12 in 1.2 mi South 13.8 mph - N/A Snow Light Snow
8:15 PM 26.6 °F 14.7 °F 24.8 °F 93% 30.10 in 1.0 mi South 15.0 mph 20.7 mph N/A Snow Light Snow
8:35 PM 26.6 °F 15.7 °F 24.8 °F 93% 30.09 in 1.2 mi South 12.7 mph 21.9 mph N/A   Overcast
8:55 PM 28.4 °F 16.6 °F 26.6 °F 93% 30.05 in 1.2 mi SSE 16.1 mph - N/A Snow Light Snow
9:15 PM 28.4 °F 17.0 °F 26.6 °F 93% 30.03 in 1.2 mi SSE 15.0 mph 20.7 mph N/A Snow Light Snow
9:35 PM 30.2 °F 20.2 °F 28.4 °F 93% 30.00 in 1.2 mi SSE 12.7 mph 29.9 mph N/A Snow Light Snow
9:55 PM 30.2 °F 18.1 °F 30.2 °F 100% 29.99 in 1.0 mi South 18.4 mph 26.5 mph N/A Snow Light Snow
10:15 PM 32.0 °F - 30.2 °F 93% 29.97 in 0.8 mi North - - N/A Snow Light Snow
10:35 PM 32.0 °F - 30.2 °F 93% 29.94 in 1.0 mi North - - N/A   Overcast
10:55 PM 32.0 °F - 32.0 °F 100% 29.92 in 1.0 mi North - - N/A   Overcast
11:15 PM 33.8 °F 22.2 °F 32.0 °F 93% 29.88 in 3.0 mi South 20.7 mph 27.6 mph N/A   Overcast
11:35 PM 33.8 °F 23.5 °F 32.0 °F 93% 29.86 in 6.0 mi South 16.1 mph 23.0 mph N/A Snow Light Snow
11:55 PM 33.8 °F 23.5 °F 33.8 °F 100% 29.85 in 3.0 mi South 16.1 mph 24.2 mph N/A   Overcast